| time (UTC) | temp F | wind direction | speed MPH | gust MPH | rain 1hr in | rain 24hr in | rain mn in | humidity % | barometer mb |
| 20260905053608 | 81 | 81 | 0.0 | 1.0 | 0.00 | 0.00 | 0.00 | 83 | 1015.8 |
| 20260905053103 | 81 | 66 | 0.0 | 0.0 | 0.00 | 0.00 | 0.00 | 82 | 1016.0 |
| 20260905052602 | 81 | 129 | 2.0 | 3.0 | 0.00 | 0.00 | 0.00 | 82 | 1015.8 |
| 20260905052057 | 82 | 75 | 0.0 | 1.0 | 0.00 | 0.00 | 0.00 | 81 | 1015.8 |
| 20260905051553 | 82 | 61 | 0.0 | 0.0 | 0.00 | 0.00 | 0.00 | 80 | 1015.8 |
| 20260905051050 | 82 | 78 | 0.0 | 2.0 | 0.00 | 0.00 | 0.00 | 79 | 1015.9 |
| 20260905050546 | 82 | 86 | 0.0 | 1.0 | 0.00 | 0.00 | 0.00 | 79 | 1015.7 |
| 20260905050043 | 82 | 91 | 0.0 | 2.0 | 0.00 | 0.00 | 0.00 | 78 | 1015.8 |
| 20260905045537 | 83 | 71 | 0.0 | 1.0 | 0.00 | 0.00 | 0.00 | 78 | 1016.0 |
| 20260905045032 | 82 | 66 | 1.0 | 2.0 | 0.00 | 0.00 | 0.00 | 78 | 1016.0 |
| 20260905044532 | 82 | 65 | 0.0 | 1.0 | 0.00 | 0.00 | 0.00 | 78 | 1015.9 |
| 20260905044026 | 83 | 74 | 0.0 | 1.0 | 0.00 | 0.00 | 0.00 | 78 | 1015.9 |
| 20260905043526 | 83 | 82 | 0.0 | 1.0 | 0.00 | 0.00 | 0.00 | 78 | 1016.1 |
| 20260905043021 | 83 | 82 | 1.0 | 3.0 | 0.00 | 0.00 | 0.00 | 78 | 1015.9 |
| 20260905042515 | 83 | 113 | 2.0 | 4.0 | 0.00 | 0.00 | 0.00 | 78 | 1016.0 |
| 20260905042010 | 83 | 95 | 2.0 | 6.0 | 0.00 | 0.00 | 0.00 | 77 | 1015.8 |
| 20260905041505 | 82 | 59 | 1.0 | 2.0 | 0.00 | 0.00 | 0.00 | 77 | 1015.8 |
| 20260905041000 | 83 | 74 | 1.0 | 1.0 | 0.00 | 0.00 | 0.00 | 77 | 1015.7 |
| 20260905040459 | 83 | 88 | 1.0 | 4.0 | 0.00 | 0.00 | 0.00 | 77 | 1015.8 |
| 20260905035958 | 83 | 184 | 3.0 | 3.0 | 0.00 | 0.00 | 0.00 | 77 | 1016.1 |
| 20260905035454 | 83 | 85 | 0.0 | 3.0 | 0.00 | 0.00 | 0.00 | 77 | 1016.1 |
| 20260905034951 | 83 | 70 | 1.0 | 2.0 | 0.00 | 0.00 | 0.00 | 78 | 1016.2 |
| 20260905034446 | 83 | 111 | 3.0 | 4.0 | 0.00 | 0.00 | 0.00 | 78 | 1016.4 |
| 20260905033945 | 83 | 65 | 1.0 | 2.0 | 0.00 | 0.00 | 0.00 | 77 | 1016.1 |
| 20260905033445 | 83 | 62 | 1.0 | 2.0 | 0.00 | 0.00 | 0.00 | 77 | 1016.0 |
| 20260905032940 | 83 | 93 | 1.0 | 2.0 | 0.00 | 0.00 | 0.00 | 77 | 1016.0 |
| 20260905032436 | 83 | 85 | 1.0 | 1.0 | 0.00 | 0.00 | 0.00 | 76 | 1016.1 |
| 20260905031931 | 83 | 70 | 0.0 | 2.0 | 0.00 | 0.00 | 0.00 | 76 | 1016.1 |
| 20260905031426 | 83 | 92 | 0.0 | 2.0 | 0.00 | 0.00 | 0.00 | 76 | 1015.9 |
| 20260905030922 | 83 | 97 | 0.0 | 1.0 | 0.00 | 0.00 | 0.00 | 76 | 1016.0 |
| 20260905030417 | 83 | 69 | 0.0 | 1.0 | 0.00 | 0.00 | 0.00 | 76 | 1015.8 |
| 20260905025916 | 83 | 80 | 0.0 | 1.0 | 0.00 | 0.00 | 0.00 | 76 | 1015.9 |
| 20260905025411 | 83 | 69 | 0.0 | 0.0 | 0.00 | 0.00 | 0.00 | 76 | 1016.0 |
| 20260905024908 | 83 | 91 | 1.0 | 1.0 | 0.00 | 0.00 | 0.00 | 75 | 1015.7 |
| 20260905024408 | 83 | 75 | 1.0 | 1.0 | 0.00 | 0.00 | 0.00 | 75 | 1015.8 |
| 20260905023903 | 84 | 68 | 0.0 | 1.0 | 0.00 | 0.00 | 0.00 | 74 | 1015.9 |
| 20260905023353 | 84 | 86 | 0.0 | 2.0 | 0.00 | 0.00 | 0.00 | 74 | 1015.8 |
| 20260905022851 | 84 | 101 | 0.0 | 3.0 | 0.00 | 0.00 | 0.00 | 74 | 1015.6 |
| 20260905022348 | 84 | 76 | 0.0 | 2.0 | 0.00 | 0.00 | 0.00 | 74 | 1015.7 |
| 20260905021847 | 84 | 88 | 0.0 | 1.0 | 0.00 | 0.00 | 0.00 | 73 | 1015.8 |
| 20260905021342 | 84 | 67 | 0.0 | 1.0 | 0.00 | 0.00 | 0.00 | 72 | 1015.5 |
| 20260905020837 | 84 | 75 | 1.0 | 1.0 | 0.00 | 0.00 | 0.00 | 72 | 1015.6 |
| 20260905020332 | 84 | 69 | 0.0 | 0.0 | 0.00 | 0.00 | 0.00 | 72 | 1015.6 |
| 20260905015831 | 84 | 94 | 0.0 | 1.0 | 0.00 | 0.00 | 0.00 | 71 | 1015.5 |
| 20260905015330 | 85 | 77 | 0.0 | 1.0 | 0.00 | 0.00 | 0.00 | 70 | 1015.2 |
| 20260905014825 | 85 | 72 | 0.0 | 1.0 | 0.00 | 0.00 | 0.00 | 70 | 1015.4 |
| 20260905014321 | 85 | 89 | 1.0 | 2.0 | 0.00 | 0.00 | 0.00 | 70 | 1015.4 |
| 20260905013815 | 85 | 91 | 0.0 | 1.0 | 0.00 | 0.00 | 0.00 | 70 | 1015.2 |
| 20260905013312 | 85 | 116 | 0.0 | 1.0 | 0.00 | 0.00 | 0.00 | 70 | 1015.3 |
| 20260905012806 | 85 | 76 | 2.0 | 2.0 | 0.00 | 0.00 | 0.00 | 69 | 1015.0 |
| 20260905012305 | 85 | 113 | 2.0 | 2.0 | 0.00 | 0.00 | 0.00 | 69 | 1015.2 |
| 20260905011758 | 86 | 53 | 0.0 | 3.0 | 0.00 | 0.00 | 0.00 | 68 | 1014.9 |
| 20260905011254 | 86 | 95 | 1.0 | 2.0 | 0.00 | 0.00 | 0.00 | 67 | 1014.9 |
| 20260905010749 | 86 | 78 | 1.0 | 1.0 | 0.00 | 0.00 | 0.00 | 66 | 1014.7 |
| 20260905010245 | 86 | 83 | 1.0 | 1.0 | 0.00 | 0.00 | 0.00 | 66 | 1014.9 |
| 20260905005741 | 86 | 83 | 1.0 | 1.0 | 0.00 | 0.00 | 0.00 | 65 | 1014.7 |
| 20260905005236 | 87 | 90 | 1.0 | 1.0 | 0.00 | 0.00 | 0.00 | 63 | 1014.8 |
| 20260905004736 | 87 | 80 | 2.0 | 3.0 | 0.00 | 0.00 | 0.00 | 63 | 1014.7 |
| 20260905004231 | 87 | 97 | 2.0 | 3.0 | 0.00 | 0.00 | 0.00 | 62 | 1014.6 |
| 20260905003731 | 87 | 89 | 1.0 | 1.0 | 0.00 | 0.00 | 0.00 | 63 | 1014.4 |
| 20260905003227 | 87 | 71 | 1.0 | 1.0 | 0.00 | 0.00 | 0.00 | 61 | 1014.3 |
| 20260905002722 | 88 | 79 | 1.0 | 2.0 | 0.00 | 0.00 | 0.00 | 60 | 1014.6 |
| 20260905002222 | 88 | 103 | 1.0 | 2.0 | 0.00 | 0.00 | 0.00 | 58 | 1014.4 |
| 20260905001717 | 88 | 85 | 1.0 | 3.0 | 0.00 | 0.00 | 0.00 | 57 | 1014.5 |
| 20260905001216 | 89 | 70 | 1.0 | 2.0 | 0.00 | 0.00 | 0.00 | 58 | 1014.6 |
| 20260905000712 | 89 | 124 | 3.0 | 3.0 | 0.00 | 0.00 | 0.00 | 57 | 1014.5 |
| 20260905000208 | 89 | 84 | 1.0 | 1.0 | 0.00 | 0.00 | 0.00 | 56 | 1014.6 |
| 20260904235708 | 89 | 116 | 2.0 | 2.0 | 0.00 | 0.00 | 0.00 | 56 | 1014.3 |
| 20260904235202 | 89 | 100 | 0.0 | 3.0 | 0.00 | 0.00 | 0.00 | 56 | 1014.5 |
| 20260904234657 | 90 | 98 | 1.0 | 3.0 | 0.00 | 0.00 | 0.00 | 54 | 1014.4 |
| 20260904234153 | 90 | 65 | 0.0 | 2.0 | 0.00 | 0.00 | 0.00 | 54 | 1014.5 |
| 20260904233648 | 90 | 84 | 1.0 | 2.0 | 0.00 | 0.00 | 0.00 | 52 | 1014.5 |
| 20260904233144 | 90 | 73 | 0.0 | 1.0 | 0.00 | 0.00 | 0.00 | 53 | 1014.4 |
| 20260904232641 | 90 | 65 | 1.0 | 2.0 | 0.00 | 0.00 | 0.00 | 54 | 1014.4 |
| 20260904232136 | 91 | 124 | 1.0 | 2.0 | 0.00 | 0.00 | 0.00 | 53 | 1014.4 |
| 20260904231632 | 91 | 91 | 2.0 | 3.0 | 0.00 | 0.00 | 0.00 | 53 | 1014.4 |
| 20260904231127 | 91 | 64 | 2.0 | 2.0 | 0.00 | 0.00 | 0.00 | 53 | 1014.6 |
| 20260904230626 | 91 | 74 | 0.0 | 2.0 | 0.00 | 0.00 | 0.00 | 54 | 1014.6 |
| 20260904230122 | 91 | 79 | 0.0 | 2.0 | 0.00 | 0.00 | 0.00 | 53 | 1014.5 |
| 20260904225619 | 92 | 95 | 1.0 | 1.0 | 0.00 | 0.00 | 0.00 | 51 | 1014.5 |
| 20260904225114 | 92 | 73 | 2.0 | 4.0 | 0.00 | 0.00 | 0.00 | 51 | 1014.5 |
| 20260904224609 | 92 | 131 | 2.0 | 3.0 | 0.00 | 0.00 | 0.00 | 52 | 1014.5 |
| 20260904224104 | 92 | 106 | 2.0 | 2.0 | 0.00 | 0.00 | 0.00 | 53 | 1014.6 |
| 20260904223603 | 92 | 71 | 0.0 | 2.0 | 0.00 | 0.00 | 0.00 | 55 | 1014.5 |
| 20260904223058 | 92 | 104 | 0.0 | 2.0 | 0.00 | 0.00 | 0.00 | 54 | 1014.6 |
| 20260904222554 | 92 | 68 | 1.0 | 4.0 | 0.00 | 0.00 | 0.00 | 53 | 1014.8 |
| 20260904222049 | 92 | 132 | 2.0 | 4.0 | 0.00 | 0.00 | 0.00 | 52 | 1014.7 |
| 20260904221544 | 92 | 83 | 1.0 | 1.0 | 0.00 | 0.00 | 0.00 | 56 | 1014.6 |
| 20260904221039 | 91 | 64 | 1.0 | 2.0 | 0.00 | 0.00 | 0.00 | 55 | 1014.7 |
| 20260904220538 | 91 | 121 | 2.0 | 4.0 | 0.00 | 0.00 | 0.00 | 58 | 1014.7 |
| 20260904220034 | 92 | 105 | 2.0 | 2.0 | 0.00 | 0.00 | 0.00 | 57 | 1015.0 |
| 20260904215533 | 92 | 311 | 2.0 | 2.0 | 0.00 | 0.00 | 0.00 | 59 | 1014.8 |
| 20260904215030 | 92 | 71 | 2.0 | 3.0 | 0.00 | 0.00 | 0.00 | 60 | 1015.2 |
| 20260904214525 | 91 | 114 | 1.0 | 1.0 | 0.00 | 0.00 | 0.00 | 60 | 1015.2 |
| 20260904214020 | 92 | 99 | 2.0 | 3.0 | 0.00 | 0.00 | 0.00 | 58 | 1015.2 |
| 20260904213518 | 91 | 203 | 3.0 | 3.0 | 0.00 | 0.00 | 0.00 | 60 | 1015.2 |
| 20260904213015 | 91 | 81 | 1.0 | 2.0 | 0.00 | 0.00 | 0.00 | 63 | 1015.4 |
| 20260904212514 | 92 | 81 | 0.0 | 0.0 | 0.00 | 0.00 | 0.00 | 62 | 1015.6 |
| 20260904212009 | 91 | 112 | 2.0 | 3.0 | 0.00 | 0.00 | 0.00 | 63 | 1015.7 |
| 20260904211504 | 91 | 143 | 2.0 | 3.0 | 0.00 | 0.00 | 0.00 | 65 | 1015.5 |
| 20260904211000 | 90 | 120 | 2.0 | 4.0 | 0.00 | 0.00 | 0.00 | 66 | 1015.6 |
| 20260904210458 | 91 | 172 | 3.0 | 4.0 | 0.00 | 0.00 | 0.00 | 66 | 1015.4 |
| 20260904205954 | 90 | 111 | 4.0 | 8.0 | 0.00 | 0.00 | 0.00 | 66 | 1015.5 |
| 20260904205449 | 90 | 135 | 1.0 | 4.0 | 0.00 | 0.00 | 0.00 | 68 | 1015.7 |
| 20260904204947 | 89 | 106 | 2.0 | 3.0 | 0.00 | 0.00 | 0.00 | 69 | 1015.7 |
| 20260904204442 | 90 | 74 | 2.0 | 7.0 | 0.00 | 0.00 | 0.00 | 70 | 1015.7 |
| 20260904203938 | 89 | 81 | 1.0 | 3.0 | 0.00 | 0.00 | 0.00 | 73 | 1015.8 |
| 20260904203434 | 89 | 112 | 3.0 | 4.0 | 0.00 | 0.00 | 0.00 | 71 | 1015.7 |
| 20260904202930 | 88 | 133 | 2.0 | 2.0 | 0.00 | 0.00 | 0.00 | 73 | 1015.9 |
| 20260904202426 | 89 | 112 | 2.0 | 3.0 | 0.00 | 0.00 | 0.00 | 72 | 1016.0 |
| 20260904201922 | 89 | 64 | 0.0 | 3.0 | 0.00 | 0.00 | 0.00 | 72 | 1016.2 |
| 20260904201416 | 88 | 136 | 2.0 | 4.0 | 0.00 | 0.00 | 0.00 | 73 | 1016.2 |
| 20260904200912 | 88 | 63 | 2.0 | 2.0 | 0.00 | 0.00 | 0.00 | 74 | 1016.2 |
| 20260904200410 | 88 | 78 | 1.0 | 2.0 | 0.00 | 0.00 | 0.00 | 73 | 1016.1 |
| 20260904195906 | 88 | 81 | 2.0 | 3.0 | 0.00 | 0.00 | 0.00 | 74 | 1016.2 |
| 20260904195403 | 88 | 179 | 1.0 | 4.0 | 0.00 | 0.00 | 0.00 | 73 | 1016.2 |
| 20260904194858 | 88 | 175 | 2.0 | 4.0 | 0.00 | 0.00 | 0.00 | 72 | 1016.2 |
| 20260904194358 | 89 | 140 | 2.0 | 3.0 | 0.00 | 0.00 | 0.00 | 71 | 1016.1 |
| 20260904193853 | 89 | 84 | 2.0 | 3.0 | 0.00 | 0.00 | 0.00 | 72 | 1016.0 |
| 20260904193348 | 89 | 95 | 2.0 | 3.0 | 0.00 | 0.00 | 0.00 | 73 | 1016.1 |
| 20260904192844 | 89 | 67 | 3.0 | 4.0 | 0.00 | 0.00 | 0.00 | 70 | 1016.1 |
| 20260904192339 | 89 | 80 | 1.0 | 3.0 | 0.00 | 0.00 | 0.00 | 72 | 1016.3 |
| 20260904191836 | 89 | 62 | 2.0 | 3.0 | 0.00 | 0.00 | 0.00 | 72 | 1016.2 |
| 20260904191332 | 89 | 99 | 2.0 | 6.0 | 0.00 | 0.00 | 0.00 | 72 | 1016.3 |
| 20260904190828 | 89 | 93 | 1.0 | 3.0 | 0.00 | 0.00 | 0.00 | 73 | 1016.3 |
| 20260904190324 | 89 | 70 | 2.0 | 3.0 | 0.00 | 0.00 | 0.00 | 73 | 1016.5 |
| 20260904185820 | 89 | 141 | 2.0 | 3.0 | 0.00 | 0.00 | 0.00 | 73 | 1016.8 |
| 20260904185315 | 90 | 147 | 1.0 | 3.0 | 0.00 | 0.00 | 0.00 | 71 | 1016.7 |
| 20260904184814 | 90 | 81 | 1.0 | 3.0 | 0.00 | 0.00 | 0.00 | 70 | 1016.8 |
| 20260904184310 | 89 | 81 | 1.0 | 2.0 | 0.00 | 0.00 | 0.00 | 71 | 1017.0 |
| 20260904183805 | 89 | 137 | 2.0 | 3.0 | 0.00 | 0.00 | 0.00 | 70 | 1016.9 |
| 20260904183306 | 89 | 91 | 1.0 | 3.0 | 0.00 | 0.00 | 0.00 | 70 | 1017.0 |
| 20260904182800 | 90 | 135 | 3.0 | 3.0 | 0.00 | 0.00 | 0.00 | 68 | 1016.9 |
| 20260904182255 | 89 | 154 | 2.0 | 2.0 | 0.00 | 0.00 | 0.00 | 68 | 1016.9 |
| 20260904181751 | 90 | 96 | 1.0 | 3.0 | 0.00 | 0.00 | 0.00 | 67 | 1017.1 |
| 20260904181251 | 90 | 99 | 3.0 | 4.0 | 0.00 | 0.00 | 0.00 | 66 | 1017.1 |
| 20260904180746 | 90 | 63 | 0.0 | 1.0 | 0.00 | 0.00 | 0.00 | 66 | 1017.0 |
| 20260904180242 | 90 | 81 | 0.0 | 2.0 | 0.00 | 0.00 | 0.00 | 66 | 1017.0 |
| 20260904175741 | 90 | 105 | 1.0 | 2.0 | 0.00 | 0.00 | 0.00 | 65 | 1017.0 |
| 20260904175239 | 90 | 356 | 2.0 | 3.0 | 0.00 | 0.00 | 0.00 | 65 | 1017.1 |
| 20260904174734 | 89 | 95 | 1.0 | 3.0 | 0.00 | 0.00 | 0.00 | 65 | 1017.1 |
| 20260904174230 | 89 | 93 | 3.0 | 4.0 | 0.00 | 0.00 | 0.00 | 64 | 1017.3 |
| 20260904173726 | 90 | 68 | 0.0 | 1.0 | 0.00 | 0.00 | 0.00 | 66 | 1017.2 |
| 20260904173220 | 90 | 68 | 1.0 | 2.0 | 0.00 | 0.00 | 0.00 | 66 | 1017.2 |
| 20260904172717 | 90 | 97 | 1.0 | 3.0 | 0.00 | 0.00 | 0.00 | 65 | 1017.2 |
| 20260904172215 | 91 | 130 | 2.0 | 3.0 | 0.00 | 0.00 | 0.00 | 64 | 1017.4 |
| 20260904171711 | 92 | 36 | 0.0 | 2.0 | 0.00 | 0.00 | 0.00 | 64 | 1017.5 |
| 20260904171206 | 91 | 67 | 0.0 | 1.0 | 0.00 | 0.00 | 0.00 | 66 | 1017.6 |
| 20260904170702 | 91 | 141 | 1.0 | 2.0 | 0.00 | 0.00 | 0.00 | 66 | 1017.7 |
| 20260904170158 | 91 | 82 | 0.0 | 1.0 | 0.00 | 0.00 | 0.00 | 65 | 1017.6 |
| 20260904165656 | 91 | 27 | 0.0 | 3.0 | 0.00 | 0.00 | 0.00 | 64 | 1017.7 |
| 20260904165156 | 91 | 67 | 0.0 | 3.0 | 0.00 | 0.00 | 0.00 | 63 | 1017.7 |
| 20260904164651 | 92 | 69 | 2.0 | 2.0 | 0.00 | 0.00 | 0.00 | 62 | 1017.6 |
| 20260904164146 | 92 | 89 | 1.0 | 2.0 | 0.00 | 0.00 | 0.00 | 61 | 1017.6 |
| 20260904163642 | 92 | 82 | 2.0 | 2.0 | 0.00 | 0.00 | 0.00 | 59 | 1017.5 |
| 20260904163137 | 92 | 34 | 1.0 | 1.0 | 0.00 | 0.00 | 0.00 | 58 | 1017.4 |
| 20260904162631 | 91 | 54 | 1.0 | 2.0 | 0.00 | 0.00 | 0.00 | 61 | 1017.4 |
| 20260904162126 | 92 | 8 | 1.0 | 1.0 | 0.00 | 0.00 | 0.00 | 63 | 1017.5 |
| 20260904161622 | 90 | 62 | 1.0 | 1.0 | 0.00 | 0.00 | 0.00 | 67 | 1017.2 |
| 20260904161117 | 89 | 68 | 0.0 | 1.0 | 0.00 | 0.00 | 0.00 | 67 | 1017.4 |
| 20260904160613 | 90 | 52 | 1.0 | 1.0 | 0.00 | 0.00 | 0.00 | 70 | 1017.4 |
| 20260904160108 | 89 | 60 | 0.0 | 2.0 | 0.00 | 0.00 | 0.00 | 71 | 1017.3 |
| 20260904155608 | 89 | 76 | 1.0 | 1.0 | 0.00 | 0.00 | 0.00 | 71 | 1017.4 |
| 20260904155102 | 89 | 347 | 1.0 | 3.0 | 0.00 | 0.00 | 0.00 | 72 | 1017.6 |
| 20260904154555 | 88 | 72 | 1.0 | 1.0 | 0.00 | 0.00 | 0.00 | 72 | 1017.5 |
| 20260904154050 | 88 | 75 | 0.0 | 1.0 | 0.00 | 0.00 | 0.00 | 74 | 1017.4 |
| 20260904153550 | 88 | 84 | 1.0 | 1.0 | 0.00 | 0.00 | 0.00 | 72 | 1017.5 |
| 20260904153046 | 88 | 70 | 0.0 | 1.0 | 0.00 | 0.00 | 0.00 | 71 | 1017.4 |
| 20260904152542 | 88 | 62 | 1.0 | 2.0 | 0.00 | 0.00 | 0.00 | 74 | 1017.5 |
| 20260904152038 | 90 | 46 | 0.0 | 1.0 | 0.00 | 0.00 | 0.00 | 72 | 1017.5 |
| 20260904151538 | 90 | 280 | 1.0 | 2.0 | 0.00 | 0.00 | 0.00 | 74 | 1017.4 |
| 20260904151037 | 90 | 63 | 0.0 | 2.0 | 0.00 | 0.00 | 0.00 | 74 | 1017.2 |
| 20260904150532 | 88 | 65 | 0.0 | 1.0 | 0.00 | 0.00 | 0.00 | 78 | 1017.4 |
| 20260904150027 | 87 | 88 | 1.0 | 2.0 | 0.00 | 0.00 | 0.00 | 81 | 1017.3 |
| 20260904145526 | 86 | 126 | 1.0 | 2.0 | 0.00 | 0.00 | 0.00 | 83 | 1017.4 |
| 20260904145021 | 85 | 61 | 0.0 | 1.0 | 0.00 | 0.00 | 0.00 | 86 | 1017.2 |
| 20260904144518 | 84 | 66 | 1.0 | 3.0 | 0.00 | 0.00 | 0.00 | 87 | 1017.3 |
| 20260904144013 | 84 | 83 | 3.0 | 3.0 | 0.00 | 0.00 | 0.00 | 88 | 1017.5 |
| 20260904143509 | 83 | 59 | 1.0 | 1.0 | 0.00 | 0.00 | 0.00 | 90 | 1017.4 |
| 20260904143006 | 83 | 67 | 0.0 | 0.0 | 0.00 | 0.00 | 0.00 | 90 | 1017.1 |
| 20260904142502 | 84 | 65 | 0.0 | 2.0 | 0.00 | 0.00 | 0.00 | 89 | 1017.3 |
| 20260904142001 | 84 | 102 | 1.0 | 3.0 | 0.00 | 0.00 | 0.00 | 87 | 1017.2 |
| 20260904141456 | 85 | 75 | 1.0 | 1.0 | 0.00 | 0.00 | 0.00 | 86 | 1017.2 |
| 20260904140953 | 86 | 76 | 0.0 | 1.0 | 0.00 | 0.00 | 0.00 | 84 | 1017.0 |
| 20260904140452 | 85 | 82 | 1.0 | 2.0 | 0.00 | 0.00 | 0.00 | 84 | 1017.1 |
| 20260904135952 | 85 | 65 | 0.0 | 1.0 | 0.00 | 0.00 | 0.00 | 86 | 1016.9 |
| 20260904135452 | 85 | 65 | 0.0 | 0.0 | 0.00 | 0.00 | 0.00 | 88 | 1016.8 |
| 20260904134948 | 84 | 94 | 1.0 | 1.0 | 0.00 | 0.00 | 0.00 | 88 | 1016.9 |
| 20260904134448 | 83 | 64 | 0.0 | 0.0 | 0.00 | 0.00 | 0.00 | 90 | 1016.8 |
| 20260904133943 | 82 | 58 | 0.0 | 1.0 | 0.00 | 0.00 | 0.00 | 91 | 1016.8 |
| 20260904133437 | 81 | 71 | 0.0 | 1.0 | 0.00 | 0.00 | 0.00 | 94 | 1016.7 |
| 20260904132933 | 81 | 88 | 1.0 | 1.0 | 0.00 | 0.00 | 0.00 | 95 | 1016.7 |
| 20260904132428 | 80 | 81 | 1.0 | 1.0 | 0.00 | 0.00 | 0.00 | 95 | 1016.7 |
| 20260904131928 | 80 | 65 | 0.0 | 2.0 | 0.00 | 0.00 | 0.00 | 96 | 1016.6 |
| 20260904131423 | 80 | 79 | 2.0 | 2.0 | 0.00 | 0.00 | 0.00 | 96 | 1016.5 |
| 20260904130919 | 80 | 84 | 1.0 | 1.0 | 0.00 | 0.00 | 0.00 | 96 | 1016.4 |
| 20260904130417 | 80 | 71 | 0.0 | 1.0 | 0.00 | 0.00 | 0.00 | 96 | 1016.5 |
| 20260904125913 | 79 | 58 | 0.0 | 1.0 | 0.00 | 0.00 | 0.00 | 97 | 1016.4 |
| 20260904125410 | 79 | 87 | 0.0 | 1.0 | 0.00 | 0.00 | 0.00 | 97 | 1016.4 |
| 20260904124908 | 79 | 81 | 1.0 | 1.0 | 0.00 | 0.00 | 0.00 | 97 | 1016.5 |
| 20260904124405 | 79 | 65 | 0.0 | 1.0 | 0.00 | 0.00 | 0.00 | 97 | 1016.3 |
| 20260904123900 | 79 | 68 | 0.0 | 2.0 | 0.00 | 0.00 | 0.00 | 97 | 1016.1 |
| 20260904123355 | 79 | 72 | 0.0 | 1.0 | 0.00 | 0.00 | 0.00 | 97 | 1016.3 |
| 20260904122851 | 79 | 66 | 0.0 | 0.0 | 0.00 | 0.00 | 0.00 | 97 | 1016.2 |
| 20260904122350 | 79 | 72 | 0.0 | 1.0 | 0.00 | 0.00 | 0.00 | 97 | 1016.1 |
| 20260904121844 | 79 | 70 | 0.0 | 1.0 | 0.00 | 0.00 | 0.00 | 97 | 1016.2 |
| 20260904121341 | 79 | 67 | 1.0 | 1.0 | 0.00 | 0.00 | 0.00 | 97 | 1016.1 |
| 20260904120837 | 79 | 77 | 1.0 | 2.0 | 0.00 | 0.00 | 0.00 | 97 | 1016.0 |
| 20260904120333 | 79 | 82 | 1.0 | 1.0 | 0.00 | 0.00 | 0.00 | 97 | 1016.0 |
| 20260904115828 | 79 | 70 | 0.0 | 1.0 | 0.00 | 0.00 | 0.00 | 97 | 1016.0 |
| 20260904115323 | 79 | 69 | 0.0 | 1.0 | 0.00 | 0.00 | 0.00 | 97 | 1015.7 |
| 20260904114823 | 79 | 77 | 0.0 | 1.0 | 0.00 | 0.00 | 0.00 | 97 | 1015.6 |
| 20260904114318 | 79 | 68 | 1.0 | 1.0 | 0.00 | 0.00 | 0.00 | 96 | 1015.6 |
| 20260904113813 | 79 | 71 | 0.0 | 1.0 | 0.00 | 0.00 | 0.00 | 96 | 1015.6 |
| 20260904113312 | 79 | 70 | 0.0 | 1.0 | 0.00 | 0.00 | 0.00 | 96 | 1015.5 |
| 20260904112807 | 80 | 68 | 0.0 | 1.0 | 0.00 | 0.00 | 0.00 | 96 | 1015.7 |
| 20260904112305 | 80 | 84 | 0.0 | 1.0 | 0.00 | 0.00 | 0.00 | 96 | 1015.6 |
| 20260904111758 | 80 | 60 | 0.0 | 1.0 | 0.00 | 0.00 | 0.00 | 96 | 1015.6 |
| 20260904111254 | 79 | 86 | 0.0 | 1.0 | 0.00 | 0.00 | 0.00 | 96 | 1015.5 |
| 20260904110749 | 79 | 68 | 1.0 | 1.0 | 0.00 | 0.00 | 0.00 | 96 | 1015.6 |
| 20260904110248 | 79 | 65 | 0.0 | 0.0 | 0.00 | 0.00 | 0.00 | 96 | 1015.4 |
| 20260904105744 | 79 | 63 | 0.0 | 2.0 | 0.00 | 0.00 | 0.00 | 96 | 1015.7 |
| 20260904105238 | 79 | 59 | 0.0 | 0.0 | 0.00 | 0.00 | 0.00 | 96 | 1015.4 |
| 20260904104733 | 79 | 48 | 0.0 | 0.0 | 0.00 | 0.00 | 0.00 | 96 | 1015.5 |
| 20260904104229 | 79 | 59 | 0.0 | 0.0 | 0.00 | 0.00 | 0.00 | 96 | 1015.5 |
| 20260904103726 | 79 | 62 | 0.0 | 0.0 | 0.00 | 0.00 | 0.00 | 96 | 1015.4 |
| 20260904103220 | 79 | 62 | 0.0 | 0.0 | 0.00 | 0.00 | 0.00 | 96 | 1015.3 |
| 20260904102716 | 79 | 63 | 0.0 | 0.0 | 0.00 | 0.00 | 0.00 | 96 | 1015.3 |
| 20260904102211 | 79 | 67 | 0.0 | 0.0 | 0.00 | 0.00 | 0.00 | 96 | 1015.4 |
| 20260904101708 | 79 | 63 | 0.0 | 0.0 | 0.00 | 0.00 | 0.00 | 96 | 1015.4 |
| 20260904101203 | 79 | 65 | 0.0 | 2.0 | 0.00 | 0.00 | 0.00 | 96 | 1015.3 |
| 20260904100659 | 79 | 74 | 0.0 | 1.0 | 0.00 | 0.00 | 0.00 | 96 | 1015.3 |
| 20260904100155 | 79 | 66 | 0.0 | 0.0 | 0.00 | 0.00 | 0.00 | 96 | 1015.4 |
| 20260904095654 | 79 | 271 | 1.0 | 3.0 | 0.00 | 0.00 | 0.00 | 96 | 1015.3 |
| 20260904095148 | 79 | 61 | 0.0 | 0.0 | 0.00 | 0.00 | 0.00 | 96 | 1015.4 |
| 20260904094644 | 79 | 73 | 2.0 | 2.0 | 0.00 | 0.00 | 0.00 | 97 | 1015.4 |
| 20260904094138 | 79 | 79 | 0.0 | 1.0 | 0.00 | 0.00 | 0.00 | 97 | 1015.5 |
| 20260904093636 | 79 | 67 | 0.0 | 1.0 | 0.00 | 0.00 | 0.00 | 97 | 1015.3 |
| 20260904093135 | 79 | 64 | 1.0 | 2.0 | 0.00 | 0.00 | 0.00 | 97 | 1015.0 |
| 20260904092631 | 79 | 71 | 0.0 | 1.0 | 0.00 | 0.00 | 0.00 | 97 | 1014.9 |
| 20260904092127 | 79 | 69 | 0.0 | 1.0 | 0.00 | 0.00 | 0.00 | 97 | 1015.5 |
| 20260904091623 | 79 | 72 | 0.0 | 2.0 | 0.00 | 0.00 | 0.00 | 97 | 1015.4 |
| 20260904091123 | 79 | 64 | 0.0 | 1.0 | 0.00 | 0.00 | 0.00 | 97 | 1015.3 |
| 20260904090618 | 79 | 68 | 0.0 | 1.0 | 0.00 | 0.00 | 0.00 | 97 | 1015.2 |
| 20260904090115 | 79 | 67 | 0.0 | 2.0 | 0.00 | 0.00 | 0.00 | 96 | 1015.5 |
| 20260904085614 | 79 | 79 | 0.0 | 0.0 | 0.00 | 0.00 | 0.00 | 96 | 1015.3 |
| 20260904085114 | 79 | 73 | 0.0 | 1.0 | 0.00 | 0.00 | 0.00 | 96 | 1015.3 |
| 20260904084610 | 80 | 60 | 1.0 | 1.0 | 0.00 | 0.00 | 0.00 | 96 | 1015.3 |
| 20260904084106 | 80 | 72 | 1.0 | 3.0 | 0.00 | 0.00 | 0.00 | 96 | 1015.2 |
| 20260904083602 | 80 | 66 | 0.0 | 1.0 | 0.00 | 0.00 | 0.00 | 96 | 1015.4 |
| 20260904083057 | 80 | 69 | 1.0 | 2.0 | 0.00 | 0.00 | 0.00 | 95 | 1015.2 |
| 20260904082552 | 80 | 66 | 0.0 | 2.0 | 0.00 | 0.00 | 0.00 | 95 | 1015.2 |
| 20260904082048 | 80 | 64 | 0.0 | 1.0 | 0.00 | 0.00 | 0.00 | 95 | 1015.3 |
| 20260904081543 | 80 | 67 | 0.0 | 2.0 | 0.00 | 0.00 | 0.00 | 95 | 1015.3 |
| 20260904081038 | 80 | 70 | 1.0 | 3.0 | 0.00 | 0.00 | 0.00 | 95 | 1015.2 |
| 20260904080534 | 80 | 87 | 0.0 | 1.0 | 0.00 | 0.00 | 0.00 | 95 | 1015.3 |
| 20260904080030 | 80 | 61 | 0.0 | 0.0 | 0.00 | 0.00 | 0.00 | 95 | 1015.5 |
| 20260904075526 | 80 | 65 | 0.0 | 2.0 | 0.00 | 0.00 | 0.00 | 95 | 1015.3 |
| 20260904075020 | 80 | 77 | 1.0 | 4.0 | 0.00 | 0.00 | 0.00 | 95 | 1015.3 |
| 20260904074515 | 80 | 61 | 1.0 | 1.0 | 0.00 | 0.00 | 0.00 | 95 | 1015.0 |
| 20260904074014 | 80 | 66 | 0.0 | 1.0 | 0.00 | 0.00 | 0.00 | 95 | 1015.4 |
| 20260904073510 | 80 | 91 | 1.0 | 2.0 | 0.00 | 0.00 | 0.00 | 96 | 1015.4 |
| 20260904073006 | 80 | 93 | 1.0 | 3.0 | 0.00 | 0.00 | 0.00 | 96 | 1015.5 |
| 20260904072502 | 80 | 60 | 0.0 | 1.0 | 0.00 | 0.00 | 0.00 | 96 | 1015.5 |
| 20260904072002 | 79 | 66 | 0.0 | 0.0 | 0.00 | 0.00 | 0.00 | 96 | 1015.6 |
| 20260904071457 | 80 | 154 | 1.0 | 1.0 | 0.00 | 0.00 | 0.00 | 95 | 1015.5 |
| 20260904070952 | 80 | 63 | 0.0 | 1.0 | 0.00 | 0.00 | 0.00 | 95 | 1015.4 |
| 20260904070450 | 80 | 67 | 0.0 | 0.0 | 0.00 | 0.00 | 0.00 | 95 | 1015.7 |
| 20260904065945 | 80 | 73 | 1.0 | 2.0 | 0.00 | 0.00 | 0.00 | 95 | 1015.7 |
| 20260904065441 | 80 | 73 | 0.0 | 1.0 | 0.00 | 0.00 | 0.00 | 95 | 1015.7 |
| 20260904064936 | 80 | 54 | 1.0 | 1.0 | 0.00 | 0.00 | 0.00 | 95 | 1015.7 |
| 20260904064433 | 80 | 62 | 0.0 | 1.0 | 0.00 | 0.00 | 0.00 | 95 | 1015.9 |
| 20260904063927 | 80 | 74 | 1.0 | 2.0 | 0.00 | 0.00 | 0.00 | 95 | 1015.8 |
| 20260904063424 | 79 | 70 | 0.0 | 1.0 | 0.00 | 0.00 | 0.00 | 95 | 1015.7 |
| 20260904062918 | 79 | 71 | 0.0 | 1.0 | 0.00 | 0.00 | 0.00 | 95 | 1015.5 |
| 20260904062414 | 79 | 65 | 0.0 | 1.0 | 0.00 | 0.00 | 0.00 | 94 | 1015.5 |
| 20260904061910 | 79 | 63 | 0.0 | 1.0 | 0.00 | 0.00 | 0.00 | 94 | 1015.5 |
| 20260904061407 | 79 | 62 | 1.0 | 1.0 | 0.00 | 0.00 | 0.00 | 94 | 1015.7 |
| 20260904060902 | 79 | 60 | 0.0 | 0.0 | 0.00 | 0.00 | 0.00 | 94 | 1015.6 |
| 20260904060358 | 79 | 64 | 0.0 | 1.0 | 0.00 | 0.00 | 0.00 | 94 | 1015.5 |
| 20260904055853 | 79 | 88 | 1.0 | 6.0 | 0.00 | 0.00 | 0.00 | 94 | 1015.7 |
| 20260904055348 | 79 | 122 | 1.0 | 2.0 | 0.00 | 0.00 | 0.00 | 93 | 1015.6 |
| 20260904054844 | 79 | 123 | 2.0 | 3.0 | 0.00 | 0.00 | 0.00 | 93 | 1015.7 |
| 20260904054340 | 79 | 62 | 0.0 | 1.0 | 0.00 | 0.00 | 0.00 | 93 | 1015.7 |